Weather reports worldwide

Advertisment
Charleville, France (7075): temperature & dewpoint: 19.04.2019 14:00:00 - 25.04.2019 14:00:00 (CEST)Charleville, France (7075): temperature 5cm: 19.04.2019 14:00:00 - 25.04.2019 14:00:00 (CEST)Charleville, France (7075): temperature -20cm & temperature -100cm: 19.04.2019 14:00:00 - 25.04.2019 14:00:00 (CEST)Charleville, France (7075): wind speed & gusts: 19.04.2019 14:00:00 - 25.04.2019 14:00:00 (CEST)Charleville, France (7075): wind direction: 19.04.2019 14:00:00 - 25.04.2019 14:00:00 (CEST)Charleville, France (7075): reduced air pressure: 19.04.2019 14:00:00 - 25.04.2019 14:00:00 (CEST)Charleville, France (7075): visibility: 19.04.2019 14:00:00 - 25.04.2019 14:00:00 (CEST)Charleville, France (7075): sunshine duration: 19.04.2019 14:00:00 - 25.04.2019 14:00:00 (CEST)Charleville, France (7075): precipitation: 19.04.2019 14:00:00 - 25.04.2019 14:00:00 (CEST)
Date & Time tt [°C] td [°C] tt 5cm [°C] tt -20cm [°C] tt -100cm [°C] ff [km/h] ff [kn] fx [km/h] fx [kn] dd ppp [hPa] vv [km] sd [min] rr [mm]
25.04.2019 14:00:00 11,6 9,8 11,3 12,3 10,2 10 5 21 12 SSE 1006,3 9 0 2,0
25.04.2019 13:00:00 12,0 10,1 11,0 12,3 10,2 11 6 36 20 SE 1006,0 17 0 1,4
25.04.2019 12:00:00 12,2 9,0 11,5 12,3 10,2 24 13 46 25 S 1005,3 17 0 0,2
25.04.2019 11:00:00 14,9 7,2 16,4 12,3 10,2 29 16 50 27 SSE 1004,4 20 31 0,0
25.04.2019 10:00:00 13,4 7,8 9,7 12,3 10,2 19 10 32 17 SE 1004,6 20 7 0,0
25.04.2019 09:00:00 10,3 7,5 8,8 12,4 10,2 15 8 26 14 ESE 1004,7 20 0 0,0
25.04.2019 08:00:00 9,8 7,4 8,6 12,5 10,2 14 7 35 19 ESE 1005,1 20 0 0,4
25.04.2019 07:00:00 9,9 6,1 8,6 12,5 10,2 14 7 26 14 ESE 1004,5 20 0 0,0
25.04.2019 06:00:00 9,7 5,9 8,3 12,6 10,1 13 7 34 18 ESE 1004,3 20 0 0,0
25.04.2019 05:00:00 9,5 6,0 8,2 12,7 10,1 14 8 24 13 ESE 1004,8 20 0 0,0
25.04.2019 04:00:00 9,2 5,7 7,6 12,7 10,1 19 10 26 14 ESE 1004,2 20 0 0,0
25.04.2019 03:00:00 9,0 6,4 7,8 12,8 10,1 16 9 27 15 ESE 1004,1 20 0 0,0
25.04.2019 02:00:00 9,2 7,1 8,4 12,9 10,1 14 8 30 16 ESE 1004,3 20 0 0,0
25.04.2019 01:00:00 9,1 7,2 6,9 12,9 10,1 18 10 28 15 ESE 1004,1 20 0 0,0
25.04.2019 00:00:00 8,9 7,2 7,5 13,0 10,1 17 9 28 15 ESE 1004,2 20 0 0,0
24.04.2019 23:00:00 9,8 7,4 8,2 13,0 10,1 18 10 26 14 ESE 1004,6 20 0 0,0
24.04.2019 22:00:00 10,3 7,9 8,8 13,0 10,1 13 7 22 12 ESE 1004,3 20 0 0,0
24.04.2019 21:00:00 11,3 8,3 10,6 13,0 10,1 13 7 27 15 SE 1003,7 20 0 0,0
24.04.2019 20:00:00 11,5 8,7 10,9 13,0 10,1 10 5 30 16 SE 1002,5 20 0 0,0
24.04.2019 19:00:00 11,9 9,1 10,6 13,0 10,1 18 10 33 18 SE 1003,0 20 0 0,0
24.04.2019 18:00:00 12,2 9,2 10,8 13,0 10,0 18 10 37 20 ESE 1001,8 20 0 0,4
24.04.2019 17:00:00 12,7 9,3 11,2 12,9 10,1 22 12 58 31 SSE 1002,0 20 0 0,8
24.04.2019 16:00:00 16,4 10,0 16,0 12,8 10,0 31 17 56 31 S 1000,3 20 24 0,0
24.04.2019 15:00:00 16,6 9,5 14,8 12,7 10,0 23 12 76 41 SSW 1000,6 20 14 0,0
24.04.2019 14:00:00 20,5 8,5 21,1 12,6 10,0 26 14 57 31 S 998,9 20 9 0,0
24.04.2019 13:00:00 19,7 9,0 20,3 12,5 10,0 30 16 73 40 S 999,2 20 31 0,0
24.04.2019 12:00:00 20,8 9,1 20,9 12,5 10,0 28 15 - - S 998,7 20 54 0,0
24.04.2019 11:00:00 19,3 9,8 18,8 12,5 10,0 27 14 54 29 S 999,2 20 40 0,0
24.04.2019 10:00:00 18,2 9,8 17,4 12,5 10,0 25 13 49 27 SSE 998,9 20 48 0,0
24.04.2019 09:00:00 16,7 9,9 14,8 12,5 10,0 18 10 35 19 SSE 998,5 20 56 0,0
24.04.2019 08:00:00 13,7 10,7 10,7 12,6 10,0 13 7 23 13 ESE 998,6 20 33 0,0
24.04.2019 07:00:00 11,9 11,1 8,2 12,7 10,0 13 7 18 10 ESE 998,2 20 0 0,0
24.04.2019 06:00:00 9,2 8,6 7,2 12,8 10,0 1 1 8 5 N 998,1 8 0 0,0
24.04.2019 05:00:00 7,7 7,3 5,4 12,9 10,0 1 1 5 3 NNW 998,5 11 0 0,0
24.04.2019 04:00:00 6,4 5,8 4,1 13,0 10,0 4 2 5 3 E 998,4 9 0 0,0
24.04.2019 03:00:00 7,3 6,7 4,1 13,0 10,0 2 1 4 2 E 998,2 4,6 0 0,0
24.04.2019 02:00:00 7,7 7,1 5,0 13,2 10,0 2 1 6 4 ESE 998,1 0,8 0 0,0
24.04.2019 01:00:00 8,2 7,6 5,0 13,2 9,9 3 1 8 4 SE 998,1 9 0 0,0
24.04.2019 00:00:00 8,8 7,9 5,1 13,2 9,9 4 2 5 3 SE 998,0 9 0 0,0
23.04.2019 23:00:00 10,0 8,4 5,9 13,3 9,9 1 1 3 1 SSE 997,8 18 0 0,0
23.04.2019 22:00:00 11,2 8,6 7,4 13,2 9,9 1 0 5 3 S 997,4 20 0 0,0
23.04.2019 21:00:00 13,7 9,9 10,0 13,2 9,9 5 3 10 6 ESE 996,8 20 0 0,0
23.04.2019 20:00:00 16,6 10,0 15,9 13,1 9,9 6 3 14 7 SE 996,1 20 0 0,0
23.04.2019 19:00:00 17,1 9,8 17,3 13,0 9,9 11 6 22 12 ESE 996,0 20 0 0,0
23.04.2019 18:00:00 17,6 9,2 18,2 12,9 9,9 11 6 28 15 ESE 996,0 20 0 0,0
23.04.2019 17:00:00 18,4 9,5 20,0 12,8 9,9 13 7 29 16 ESE 995,9 20 38 0,0
23.04.2019 16:00:00 18,9 9,4 20,5 12,7 9,9 12 7 26 14 SE 996,0 20 4 0,0
23.04.2019 15:00:00 18,4 7,8 21,1 12,6 9,8 16 9 30 16 SE 996,2 20 20 0,0
23.04.2019 14:00:00 17,7 7,1 20,5 12,5 9,9 21 11 33 18 SE 996,3 20 45 0,0
23.04.2019 13:00:00 17,9 8,2 21,4 12,5 9,8 18 10 27 15 SE 996,1 20 30 0,0
23.04.2019 12:00:00 17,2 7,3 20,6 12,5 9,8 18 10 31 17 SE 996,6 20 52 0,0
23.04.2019 11:00:00 16,6 6,1 17,8 12,5 9,8 21 11 30 16 ESE 996,9 20 55 0,0
23.04.2019 10:00:00 14,6 6,2 15,2 12,5 9,8 8 4 14 7 ESE 997,6 20 9 0,0
23.04.2019 09:00:00 12,2 8,3 9,4 12,7 9,8 5 3 8 4 S 997,9 20 1 0,0
23.04.2019 08:00:00 8,0 6,3 4,5 12,7 9,8 3 1 4 2 SSE 998,2 20 0 0,0
23.04.2019 07:00:00 6,5 5,3 3,7 12,8 9,8 2 1 3 2 S 998,4 20 0 0,0
23.04.2019 06:00:00 7,2 5,5 4,1 12,9 9,8 1 1 5 3 SW 998,8 20 0 0,0
23.04.2019 05:00:00 6,9 4,9 4,7 13,0 9,8 3 1 5 3 SSE 999,2 20 0 0,0
23.04.2019 04:00:00 7,9 5,5 5,6 13,1 9,8 2 1 6 4 WSW 999,6 20 0 0,0
23.04.2019 03:00:00 8,0 5,8 4,4 13,2 9,8 3 1 5 3 SW 999,9 20 0 0,0
23.04.2019 02:00:00 8,2 5,7 5,0 13,3 9,8 1 1 6 4 SW 1000,4 20 0 0,0
23.04.2019 01:00:00 9,2 5,9 6,1 13,3 9,8 4 2 8 4 W 1000,9 20 0 0,0
23.04.2019 00:00:00 10,2 6,3 6,7 13,3 9,8 5 3 13 7 W 1001,3 20 0 0,0
22.04.2019 23:00:00 10,4 6,2 6,7 13,3 9,8 3 2 13 7 W 1001,6 20 0 0,0
22.04.2019 22:00:00 14,0 6,8 9,2 13,3 9,8 3 2 10 6 SSW 1002,3 20 0 0,0
22.04.2019 21:00:00 15,7 8,0 10,0 13,2 9,7 3 1 9 5 SSE 1002,1 20 0 0,0
22.04.2019 20:00:00 19,7 7,1 15,6 13,1 9,7 4 2 14 8 ESE 1001,6 20 2 0,0
22.04.2019 19:00:00 22,2 7,6 21,7 12,9 9,7 11 6 19 11 ESE 1001,7 20 60 0,0
22.04.2019 18:00:00 23,8 6,6 23,2 12,8 9,7 8 4 24 13 SE 1002,2 20 43 0,0
22.04.2019 17:00:00 23,2 7,7 23,3 12,6 9,7 12 6 24 13 SSE 1003,0 20 36 0,0
22.04.2019 16:00:00 24,0 8,0 27,6 12,4 9,7 13 7 29 16 SE 1003,6 20 60 0,0
22.04.2019 15:00:00 23,6 5,9 28,4 12,3 9,7 16 9 29 16 SE 1004,6 18 60 0,0
22.04.2019 14:00:00 23,1 6,4 28,2 12,1 9,7 18 10 29 15 SE 1005,3 20 60 0,0
22.04.2019 13:00:00 23,0 5,4 27,6 12,0 9,7 14 8 26 14 SE 1005,8 20 60 0,0
22.04.2019 12:00:00 21,6 7,4 26,0 12,0 9,7 14 8 25 14 SE 1006,8 20 60 0,0
22.04.2019 11:00:00 19,6 4,9 21,9 12,0 9,7 16 9 23 13 SE 1008,1 20 60 0,0
22.04.2019 10:00:00 16,5 6,3 17,5 12,1 9,7 4 2 10 6 S 1009,0 20 60 0,0
22.04.2019 09:00:00 11,5 9,1 8,2 12,2 9,7 1 1 4 2 SW 1010,0 20 31 0,0
22.04.2019 08:00:00 7,1 6,7 6,0 12,3 9,7 1 1 4 2 WNW 1010,6 20 0 0,0
22.04.2019 07:00:00 5,7 5,3 1,0 12,4 9,7 2 1 5 3 WSW 1010,8 19 0 0,0
22.04.2019 06:00:00 4,4 3,7 0,6 12,5 9,7 1 0 3 2 S 1011,1 0,8 0 0,0
22.04.2019 05:00:00 5,6 5,0 2,4 12,6 9,7 1 1 3 1 SE 1011,6 1,8 0 0,0
22.04.2019 04:00:00 5,7 5,0 2,8 12,7 9,7 1 1 3 2 WSW 1012,3 15 0 0,0
22.04.2019 03:00:00 6,2 5,5 3,0 12,7 9,7 0 0 2 1 ENE 1012,9 16 0 0,0
22.04.2019 02:00:00 6,9 5,8 3,7 12,8 9,6 1 1 3 2 WNW 1013,4 14 0 0,0
22.04.2019 01:00:00 7,4 6,0 4,1 12,9 9,6 1 0 3 2 SSW 1014,0 20 0 0,0
22.04.2019 00:00:00 8,6 6,6 5,2 12,9 9,6 1 1 6 3 WNW 1014,2 20 0 0,0
21.04.2019 23:00:00 9,5 7,1 6,0 12,9 9,6 1 1 7 4 N 1014,5 20 0 0,0
21.04.2019 22:00:00 11,4 7,9 7,3 12,9 9,6 1 1 3 2 WNW 1014,7 20 0 0,0
21.04.2019 21:00:00 14,6 8,8 10,3 12,8 9,6 2 1 9 5 SSE 1014,5 0,1 0 0,0
21.04.2019 20:00:00 20,1 8,1 16,5 12,7 9,6 1 1 10 6 NW 1014,0 3,4 34 0,0
21.04.2019 19:00:00 22,4 8,1 21,6 12,5 9,6 9 5 22 12 SSE 1014,1 2,6 56 0,0
21.04.2019 18:00:00 23,4 7,1 23,7 12,3 9,6 13 7 24 13 SSE 1014,6 3,6 60 0,0
21.04.2019 17:00:00 23,7 5,6 25,8 12,1 9,6 14 8 29 16 SE 1015,1 2,5 60 0,0
21.04.2019 16:00:00 24,5 5,3 27,2 11,9 9,6 13 7 27 15 SE 1015,8 0,3 60 0,0
21.04.2019 15:00:00 24,1 4,4 29,0 11,7 9,5 13 7 30 16 SE 1016,6 0,5 60 0,0
21.04.2019 14:00:00 23,8 7,0 29,2 11,6 9,6 18 10 30 16 SE 1017,4 0,7 60 0,0
21.04.2019 13:00:00 23,1 5,5 27,9 11,5 9,6 14 8 30 16 SE 1018,2 1,2 60 0,0
21.04.2019 12:00:00 22,6 8,7 27,9 11,4 9,5 9 5 16 9 SSE 1019,0 15 60 0,0
21.04.2019 11:00:00 19,0 9,5 22,7 11,5 9,6 3 2 6 4 WNW 1020,0 20 60 0,0
21.04.2019 10:00:00 16,4 8,6 15,3 11,5 9,5 2 1 5 3 E 1020,8 20 60 0,0
21.04.2019 09:00:00 11,4 7,5 9,1 11,7 9,6 1 1 4 2 E 1021,5 20 60 0,0
21.04.2019 08:00:00 5,9 5,0 -0,3 11,8 9,6 2 1 5 3 WNW 1022,2 16 58 0,0
21.04.2019 07:00:00 2,1 1,2 -1,5 11,9 9,6 2 1 4 2 W 1022,5 17 0 0,0
21.04.2019 06:00:00 2,3 1,3 -1,3 12,0 9,5 2 1 6 3 WSW 1022,8 14 0 0,0
21.04.2019 05:00:00 3,4 1,9 -0,8 12,2 9,6 2 1 8 5 W 1023,1 13 0 0,0
21.04.2019 04:00:00 3,9 2,6 -0,2 12,2 9,5 4 2 7 4 W 1023,5 14 0 0,0
21.04.2019 03:00:00 4,7 2,4 0,1 12,3 9,5 2 1 10 5 WNW 1023,8 20 0 0,0
21.04.2019 02:00:00 7,0 5,1 1,6 12,4 9,5 4 2 8 5 W 1024,2 20 0 0,0
21.04.2019 01:00:00 7,3 4,8 2,4 12,4 9,5 2 1 11 6 NW 1024,6 20 0 0,0
21.04.2019 00:00:00 9,1 5,3 5,7 12,5 9,5 7 4 11 6 SSE 1024,7 12 0 0,0
20.04.2019 23:00:00 13,1 5,7 7,1 12,4 9,5 2 1 8 4 N 1024,5 20 0 0,0
20.04.2019 22:00:00 15,4 5,3 11,4 12,4 9,5 7 4 19 10 SSE 1024,3 16 0 0,0
20.04.2019 21:00:00 18,7 5,2 14,9 12,3 9,5 14 7 35 19 NNE 1023,8 20 17 0,0
20.04.2019 20:00:00 21,4 5,7 18,9 12,2 9,5 17 9 33 18 NNE 1023,4 19 60 0,0
20.04.2019 19:00:00 23,0 7,5 21,9 12,0 9,5 15 8 38 20 NNE 1023,4 20 57 0,0
20.04.2019 18:00:00 24,4 5,7 24,7 11,8 9,5 16 9 27 15 E 1023,4 20 60 0,0
20.04.2019 17:00:00 24,5 5,3 27,3 11,6 9,5 19 10 31 17 E 1024,0 20 60 0,0
20.04.2019 16:00:00 25,1 6,8 29,1 11,3 9,5 8 4 31 17 E 1024,5 20 60 0,0
20.04.2019 15:00:00 24,6 6,3 30,4 11,1 9,4 14 7 26 14 E 1025,4 18 60 0,0
20.04.2019 14:00:00 24,0 5,3 28,6 11,0 9,5 13 7 29 16 SE 1025,8 1,7 60 0,0
20.04.2019 13:00:00 23,5 5,4 28,5 10,9 9,5 18 10 28 15 SE 1026,3 11 60 0,0
20.04.2019 12:00:00 23,4 9,8 29,2 10,8 9,4 7 4 22 12 SE 1026,6 18 60 0,0
20.04.2019 11:00:00 21,1 7,7 22,4 10,9 9,5 2 1 6 3 SE 1027,3 20 60 0,0
20.04.2019 10:00:00 15,7 9,4 15,1 10,9 9,5 1 1 8 5 WNW 1027,9 20 60 0,0
20.04.2019 09:00:00 9,9 8,0 7,8 11,0 9,5 3 2 6 3 WNW 1028,5 20 60 0,0
20.04.2019 08:00:00 6,0 5,7 1,2 11,1 9,5 1 0 4 2 WSW 1028,7 19 56 0,0
20.04.2019 07:00:00 2,9 2,3 -0,6 11,3 9,5 3 1 4 2 WNW 1028,5 17 0 0,0
20.04.2019 06:00:00 2,7 2,0 -0,3 11,4 9,5 1 1 4 2 WSW 1028,3 7 0 0,0
20.04.2019 05:00:00 3,7 3,1 0,1 11,5 9,4 1 1 5 3 WNW 1028,2 0,3 0 0,0
20.04.2019 04:00:00 4,2 3,3 0,8 11,6 9,5 3 2 6 3 W 1028,3 15 0 0,0
20.04.2019 03:00:00 5,8 5,1 1,6 11,6 9,5 2 1 4 2 W 1028,0 12 0 0,0
20.04.2019 02:00:00 5,7 4,7 1,9 11,7 9,5 1 0 5 3 SSW 1028,2 7 0 0,0
20.04.2019 01:00:00 7,3 5,6 3,6 11,7 9,5 3 1 8 4 W 1028,1 20 0 0,0
20.04.2019 00:00:00 8,2 6,2 4,3 11,7 9,5 3 2 9 5 W 1027,9 20 0 0,0
19.04.2019 23:00:00 8,4 6,4 5,1 11,7 9,5 6 3 12 6 SE 1027,6 20 0 0,0
19.04.2019 22:00:00 11,1 7,4 6,7 11,6 9,4 1 1 4 2 N 1027,1 20 0 0,0
19.04.2019 21:00:00 15,2 7,5 9,9 11,5 9,4 2 1 14 7 W 1026,3 18 4 0,0
19.04.2019 20:00:00 18,8 7,9 16,4 11,3 9,4 11 6 29 16 ENE 1025,6 20 56 0,0
19.04.2019 19:00:00 21,9 7,7 21,0 11,1 9,4 6 4 13 7 E 1025,2 20 29 0,0
19.04.2019 18:00:00 24,3 4,6 24,9 10,9 9,5 7 4 21 11 SSW 1024,9 20 60 0,0
19.04.2019 17:00:00 23,9 7,1 26,9 10,7 9,4 10 5 23 13 SSE 1024,9 20 60 0,0
19.04.2019 16:00:00 23,5 9,8 28,0 10,5 9,4 10 6 26 14 SE 1025,1 19 60 0,0
19.04.2019 15:00:00 22,6 8,7 27,6 10,3 9,4 15 8 27 15 SE 1025,4 20 60 0,0
19.04.2019 14:00:00 22,0 7,8 26,6 10,2 9,4 19 10 32 17 SSE 1025,4 20 60 0,0

tt = temperature
td = dewpoint
tt 5cm = temperature 5cm
tt -20cm = temperature -20cm
tt -100cm = temperature -100cm
ff = wind speed
fx = gusts
dd = wind direction
ppp = reduced air pressure
vv = visibility
sd = sunshine duration
rr = precipitation

Next stations